Theta_e
300 301 301 301 300 300 299 298 297 296 297 296 295 295 294 295 295 295 296 296 295 294 293 292 291 291 290 289 289 288 287 287 288 287 288 289 289 290 289 290 289 289 289
297 298 299 299 299 297 297 296 295 296 296 296 295 296 294 293 294 294 294 293 293 292 291 290 290 290 289 288 288 287 285 286 287 284 285 283 287 288 289 289 289 288 289
297 297 297 297 296 296 295 295 295 295 294 294 295 294 294 293 293 293 292 292 291 291 291 291 290 289 289 287 287 286 285 283 286 286 284 281 281 283 289 287 288 288 288
297 297 296 295 295 294 295 295 294 293 293 294 294 293 292 290 290 291 292 291 291 290 291 290 290 289 288 287 286 286 285 284 283 284 285 285 283 279 280 286 287 287 287
297 295 295 294 293 294 294 293 292 292 291 291 293 292 291 290 290 290 289 289 290 290 290 290 289 288 288 287 286 286 285 285 283 281 282 282 283 284 280 278 282 286 287
295 294 294 293 292 293 292 292 291 290 291 292 292 291 289 289 288 288 287 287 288 289 289 289 289 288 288 287 286 286 285 285 284 283 283 282 281 281 281 279 280 282 285
293 293 292 291 291 292 290 291 290 288 291 291 290 289 289 288 287 286 286 286 287 287 288 289 288 288 287 287 286 286 285 285 284 284 284 285 284 283 284 282 280 280 283
293 293 292 292 292 290 291 290 288 289 290 290 288 288 288 288 287 287 287 287 287 287 289 288 289 288 287 287 286 286 285 285 285 284 285 283 283 284 284 283 281 279 280
292 292 292 293 292 292 290 289 290 290 289 289 288 288 288 288 287 288 288 287 288 287 288 288 288 288 287 286 286 285 284 284 284 284 284 283 284 285 285 285 283 280 276
291 292 293 292 292 291 290 290 291 290 288 288 288 287 287 288 288 288 286 287 288 288 288 288 288 287 286 285 285 284 283 283 284 284 283 282 283 284 285 284 284 283 280
292 292 292 292 291 289 289 291 290 288 288 288 287 288 287 287 287 286 286 286 287 287 287 287 287 286 285 284 285 284 283 282 283 283 282 282 284 283 284 284 284 283 282
292 292 292 291 289 289 291 291 290 288 288 288 288 287 287 287 286 286 286 287 287 288 287 287 286 285 283 283 284 283 283 282 282 282 282 282 283 283 284 284 283 283 284
291 291 291 290 289 289 291 290 289 288 288 287 287 286 286 285 285 286 286 287 287 287 287 286 284 282 282 283 284 284 284 283 283 282 282 282 282 282 283 284 283 283 284
290 291 290 290 289 289 291 290 289 288 288 287 286 285 285 285 286 285 285 285 286 285 284 283 282 282 282 283 283 284 284 283 283 283 282 282 282 283 283 284 284 284 283
290 290 290 290 289 289 289 289 288 288 287 286 286 285 285 285 284 283 284 284 284 283 282 282 282 282 282 282 283 285 283 282 282 282 282 282 283 284 284 284 284 284 283
290 290 290 289 289 290 289 288 288 287 287 286 285 285 284 283 282 281 282 282 281 282 282 282 282 281 281 281 283 284 282 282 281 280 281 282 283 283 284 284 284 284 283
290 290 290 289 290 290 288 290 287 287 286 285 285 284 282 281 280 280 280 280 281 281 281 281 281 281 282 282 284 283 282 282 282 281 281 281 282 283 284 285 284 284 284
290 291 291 292 291 291 290 288 287 286 285 284 283 281 280 279 280 280 280 280 280 280 280 281 281 281 281 281 283 282 282 282 282 282 282 281 282 283 284 284 284 285 285
292 293 293 290 289 289 289 287 286 285 284 282 280 280 280 279 279 279 279 280 280 281 281 281 281 280 281 281 282 282 281 281 281 282 282 282 282 283 284 283 283 284 285
293 291 289 288 290 289 287 286 284 284 282 280 279 280 280 279 279 279 279 280 281 280 281 280 281 280 280 281 281 281 280 280 280 281 281 281 281 282 282 283 282 282 284
290 289 289 291 289 287 287 285 284 283 283 280 281 281 281 280 281 281 280 280 280 281 281 280 280 280 280 280 280 281 280 279 279 279 279 280 281 281 282 282 283 282 284
288 289 289 287 287 287 286 284 283 284 283 282 282 282 282 282 282 282 282 280 280 280 280 279 279 280 280 280 280 280 280 280 278 278 279 280 280 281 281 281 282 282 284
288 288 287 285 286 286 286 284 284 284 282 282 281 282 283 283 283 282 281 280 280 280 279 278 278 278 279 280 280 279 280 279 278 279 279 279 279 280 281 280 281 283 285
286 287 286 285 284 285 285 285 284 283 280 281 282 283 283 283 283 282 281 280 280 279 278 278 278 278 279 279 279 279 280 279 279 278 279 278 278 279 280 281 282 283 284
287 286 285 285 283 284 284 284 283 284 284 284 283 283 283 282 282 281 280 280 281 280 279 278 279 277 278 279 278 278 278 279 277 278 278 278 278 278 279 279 280 282 283
286 285 285 282 280 282 282 284 285 284 284 283 283 282 282 282 282 281 280 280 280 279 279 279 279 280 278 278 277 277 277 277 276 277 276 276 276 276 277 277 278 281 282
Wind_Speed
11 13 14 15 15 12 11 10 10 8 5 4 4 4 3 4 5 6 7 7 5 6 7 6 8 7 7 9 10 10 12 9 9 9 10 4 4 3 5 4 6 8 9
14 14 15 15 12 12 11 10 8 6 4 4 4 3 3 4 5 5 6 6 6 6 7 8 7 8 7 10 10 11 9 8 8 8 8 5 3 4 8 4 5 9 9
17 16 15 14 13 12 11 10 9 8 7 7 6 5 5 3 3 3 3 4 6 6 6 7 7 7 7 7 9 9 10 9 8 8 5 6 5 11 0 6 7 8 9
13 15 16 15 13 12 11 11 10 9 7 5 5 4 4 3 3 3 2 3 5 6 6 6 6 7 7 8 7 8 9 9 9 7 3 7 7 5 8 4 8 9 9
14 15 16 16 14 12 11 10 11 11 7 8 7 4 5 4 3 2 5 5 5 6 6 6 6 7 7 8 9 11 11 7 6 6 7 7 6 7 6 11 11 9 8
14 15 15 15 13 12 11 10 11 8 7 7 7 7 6 5 4 5 5 5 5 4 6 6 6 7 9 9 9 11 10 8 6 6 6 5 5 7 7 9 12 13 10
14 16 16 14 12 11 10 10 8 8 7 7 7 6 6 6 5 5 5 7 6 5 6 7 7 8 9 9 10 11 10 7 7 7 6 6 6 7 8 8 10 10 10
12 14 14 13 12 10 10 9 8 8 7 7 7 5 5 4 4 5 5 5 5 5 7 6 7 9 10 10 11 8 8 8 7 9 8 7 7 6 7 7 9 10 10
12 13 13 12 11 10 9 9 8 7 7 6 4 5 5 5 5 6 5 5 5 6 7 7 7 10 10 11 12 8 9 9 8 9 8 7 6 6 7 6 7 7 9
12 12 11 11 10 11 9 9 7 6 5 5 4 4 4 5 6 6 7 7 7 7 8 7 8 10 11 12 12 9 10 11 8 7 9 7 6 9 7 7 7 7 8
11 11 10 10 10 10 9 8 4 5 5 4 4 4 5 6 6 6 7 8 8 8 8 7 9 11 13 13 11 11 11 12 11 9 9 10 10 7 7 7 6 6 6
10 11 11 11 10 9 8 5 4 4 4 4 4 5 5 6 7 8 8 9 9 7 7 8 10 12 14 12 12 13 12 13 12 10 11 11 8 10 9 7 9 8 8
11 11 10 10 9 8 6 5 3 4 3 3 4 5 7 7 8 9 9 9 9 8 9 10 12 13 13 11 12 15 11 14 12 11 11 11 10 10 10 8 8 8 7
11 10 10 9 8 8 5 3 2 3 3 4 5 6 8 8 8 9 10 10 9 9 10 11 12 12 12 11 14 17 13 14 11 11 10 10 10 13 11 10 10 7 7
11 10 10 9 9 6 4 3 2 3 3 4 5 7 7 8 8 9 10 10 10 10 11 11 11 12 11 9 16 16 15 13 12 11 10 10 13 16 16 9 11 9 7
11 11 10 11 8 5 5 4 2 3 4 5 7 7 7 8 9 9 10 10 11 11 11 11 12 12 9 18 22 19 14 13 12 11 11 11 13 14 18 17 17 11 8
12 12 11 9 8 7 6 2 4 4 5 6 6 7 7 8 9 9 9 10 12 12 12 12 12 12 12 21 24 23 12 12 12 11 11 11 9 15 14 13 13 10 9
12 11 8 8 8 7 5 5 5 5 5 6 6 6 7 8 9 9 10 11 11 12 12 12 13 12 11 22 24 25 14 12 12 11 11 12 13 14 15 13 10 9 7
8 7 7 8 7 7 6 7 6 5 6 6 6 6 7 8 9 10 11 11 11 11 12 12 14 14 13 22 24 21 13 13 13 12 11 12 14 20 18 12 10 10 7
8 9 9 8 8 6 7 6 6 5 5 5 5 6 6 7 8 9 10 10 10 11 10 12 12 14 14 20 26 21 11 14 11 12 13 16 18 21 18 11 10 10 8
9 9 8 7 7 8 7 6 5 5 5 4 4 5 5 6 7 8 9 10 11 11 12 13 12 13 14 17 24 24 13 11 10 10 11 11 23 21 19 16 10 11 9
9 8 8 7 7 7 6 6 5 5 4 3 3 4 5 5 6 9 9 10 11 12 12 13 12 11 14 20 22 24 22 20 10 11 10 12 22 21 19 15 20 16 7
8 7 8 8 6 5 5 5 5 4 3 2 3 4 5 6 7 8 10 9 10 10 11 10 11 11 12 13 23 21 23 21 12 11 15 21 21 19 14 20 20 12 9
8 7 9 8 6 5 5 5 3 3 2 1 3 4 5 7 7 6 7 8 9 9 10 10 11 11 11 13 13 12 13 18 14 15 12 13 14 13 13 13 13 10 9
7 7 7 6 6 5 5 4 3 2 1 2 4 5 5 6 7 6 6 7 7 9 9 9 9 10 12 13 18 15 12 12 11 11 9 10 11 11 12 12 11 10 10
8 7 7 7 4 5 4 2 1 1 1 3 3 4 4 5 5 6 6 8 9 11 12 14 11 8 15 20 22 21 20 23 19 10 11 11 11 11 12 12 11 11 12
Wind_Direction
145 139 137 131 124 120 122 122 120 119 123 131 127 124 103 84 66 66 63 64 49 36 18 4 4 5 10 1 357 350 345 347 351 319 329 291 280 254 325 338 337 346 346
141 138 136 132 124 121 116 109 104 99 89 106 96 100 114 81 75 69 59 47 41 27 16 11 11 16 0 357 354 353 345 340 348 335 302 326 304 205 335 314 341 345 341
149 142 137 128 122 117 110 102 94 87 82 94 108 109 119 119 93 66 48 36 28 21 16 20 16 10 358 348 352 353 344 330 326 334 312 326 338 326 116 337 334 338 336
137 137 137 129 118 103 102 98 89 82 72 80 84 72 57 62 50 39 14 7 24 14 13 18 6 0 347 349 350 341 333 323 323 324 303 300 287 314 319 327 331 324 327
135 137 134 122 113 113 98 90 85 73 62 66 73 72 71 72 67 39 4 10 12 9 8 7 354 354 346 348 343 336 335 325 328 309 310 309 297 268 280 307 325 320 331
126 127 119 117 111 109 101 97 86 84 72 70 66 66 68 56 39 23 6 4 354 356 8 349 345 348 347 343 336 334 331 328 326 309 302 292 297 302 298 300 312 314 320
130 131 129 123 119 114 109 101 102 89 81 70 61 58 55 43 28 8 3 354 352 351 360 339 340 348 347 339 335 333 332 330 322 310 300 292 287 288 283 289 300 307 310
132 134 128 129 129 119 106 107 100 95 80 71 58 50 34 24 12 5 352 346 338 337 339 333 337 344 344 340 338 333 333 326 320 312 301 292 287 278 277 295 300 306 307
136 132 132 129 120 117 109 106 99 88 75 70 70 45 22 10 1 352 336 336 336 333 333 332 338 342 345 343 340 338 333 328 322 315 305 300 294 293 289 288 292 296 304
144 144 137 118 111 103 107 99 86 71 73 70 52 40 8 2 355 346 349 339 338 334 333 336 339 343 345 342 340 340 326 331 324 314 313 307 294 299 296 295 289 282 285
144 133 118 113 115 117 111 88 87 99 72 57 45 21 12 7 2 353 345 341 334 342 341 340 341 345 343 338 335 341 328 333 324 316 304 303 311 300 303 293 289 284 275
137 134 135 132 122 120 104 87 93 91 60 47 34 17 16 8 3 353 348 345 344 353 355 345 344 343 338 334 332 330 332 332 326 319 313 308 307 303 298 295 293 288 288
139 138 135 134 128 125 102 88 107 85 64 55 30 21 15 13 2 360 2 1 359 3 356 352 348 341 339 334 336 332 321 330 323 320 313 310 309 302 301 295 291 285 287
150 144 142 136 128 111 104 98 127 103 73 52 29 22 19 13 7 8 9 8 2 4 1 353 347 344 340 339 336 333 333 331 329 321 318 310 309 303 323 315 307 291 292
154 150 144 134 123 138 116 182 133 80 60 53 32 28 20 14 11 9 8 5 1 1 355 354 352 348 343 347 332 334 338 337 331 330 325 320 314 323 322 314 313 309 289
159 156 147 142 152 146 181 154 106 95 75 51 41 27 15 11 11 10 7 6 5 4 360 357 352 347 348 342 336 346 337 335 338 332 332 329 324 325 318 311 308 307 293
167 162 162 154 154 164 170 155 128 99 71 56 40 22 16 20 18 14 12 11 10 5 3 358 351 349 350 343 343 348 339 334 340 335 333 331 327 327 319 316 312 297 277
166 165 144 149 150 169 139 122 122 97 75 57 35 26 27 27 20 17 17 14 5 5 1 357 355 351 359 348 350 348 342 335 341 339 334 330 330 327 332 326 319 312 299
145 128 134 139 149 149 128 134 112 91 80 53 42 38 32 29 19 17 14 10 4 2 359 356 357 356 358 353 354 351 344 341 345 342 341 335 331 336 339 329 325 319 313
114 126 130 135 141 127 136 127 108 101 82 64 58 47 37 26 20 13 9 3 2 3 358 355 360 1 358 358 358 359 348 345 345 346 342 345 340 343 349 342 333 331 334
115 117 127 133 129 135 134 120 118 102 100 98 65 41 23 14 10 3 5 1 3 4 2 0 3 1 5 358 360 1 355 349 341 345 343 342 344 350 354 352 351 341 321
120 125 122 122 128 133 131 123 114 115 118 104 62 32 12 4 356 358 3 3 4 6 6 1 2 1 2 3 1 2 359 358 349 347 344 341 347 352 355 358 355 353 353
121 125 126 122 116 118 127 126 126 138 136 92 23 359 357 1 0 2 4 5 10 7 5 2 358 358 359 1 2 360 358 1 354 352 350 352 354 359 2 358 2 7 13
127 128 129 126 113 106 107 116 104 98 118 158 333 349 357 355 7 12 11 11 11 4 5 2 358 356 358 2 358 359 358 358 3 355 352 352 357 7 6 5 7 10 6
120 133 132 124 110 110 108 115 127 168 266 344 2 358 2 6 9 25 16 15 22 11 4 3 354 357 0 3 3 5 0 360 354 351 358 4 4 5 7 6 7 7 8
132 130 119 119 126 124 116 113 62 103 42 44 23 13 5 12 13 11 12 50 24 21 20 16 7 3 8 6 9 10 10 13 9 15 15 11 7 7 3 4 2 6 8